Location: Ostrava
(49.8330°N, 18.2830°E)
Time: 05:25:36
(UTC+02:00)

ISS - Pass Details

Date: 24 May 2021
Orbit: 417 x 422 km, 51.6° (Epoch: 13 June)

Event Time Altitude Azimuth Distance (km) Brightness Sun altitude
Rises 23:00:02 0° 288° (WNW) 2,368 0.7 -15.6°
Reaches altitude 10° 23:02:08 10° 285° (WNW) 1,503 -0.4 -15.7°
Maximum altitude 23:05:28 64° 204° (SSW) 470 -3.8 -16.0°
Enters shadow 23:06:29 40° 139° (SE) 635 -3.4 -16.0°
